TimeEST,TemperatureF,Dew PointF,Humidity,Sea Level PressureIn,VisibilityMPH,Wind Direction,Wind SpeedMPH,Gust SpeedMPH,PrecipitationIn,Events,Conditions,WindDirDegrees,DateUTC
12:55 AM,39.9,37.0,89,30.38,4.0,ESE,6.9,-,N/A,,Clear,120,2012-11-19 05:55:00
1:55 AM,39.9,37.0,89,30.37,3.0,ESE,6.9,-,N/A,,Clear,110,2012-11-19 06:55:00
2:55 AM,39.9,37.0,89,30.37,4.0,ESE,6.9,-,N/A,,Clear,110,2012-11-19 07:55:00
3:55 AM,39.0,36.0,89,30.35,4.0,East,5.8,-,N/A,,Clear,100,2012-11-19 08:55:00
4:55 AM,39.9,37.0,89,30.35,3.0,ESE,5.8,-,N/A,,Scattered Clouds,110,2012-11-19 09:55:00
5:28 AM,39.0,37.0,93,30.33,2.0,East,3.5,-,N/A,,Scattered Clouds,90,2012-11-19 10:28:00
5:55 AM,39.0,37.0,93,30.35,2.5,East,3.5,-,N/A,,Overcast,90,2012-11-19 10:55:00
6:21 AM,39.0,36.0,89,30.32,1.8,ENE,4.6,-,N/A,,Mostly Cloudy,70,2012-11-19 11:21:00
6:50 AM,39.2,37.4,93,30.32,2.0,East,3.5,-,N/A,,Overcast,90,2012-11-19 11:50:00
6:55 AM,39.0,37.0,93,30.34,1.8,East,3.5,-,N/A,,Overcast,80,2012-11-19 11:55:00
7:22 AM,39.0,36.0,89,30.31,2.5,ESE,5.8,-,N/A,,Partly Cloudy,110,2012-11-19 12:22:00
7:29 AM,39.0,36.0,89,30.31,4.0,ESE,8.1,-,N/A,,Clear,120,2012-11-19 12:29:00
7:55 AM,39.9,36.0,86,30.32,4.0,ESE,6.9,-,N/A,,Clear,120,2012-11-19 12:55:00
8:55 AM,39.9,37.0,89,30.31,3.0,East,5.8,-,N/A,,Overcast,80,2012-11-19 13:55:00
9:55 AM,42.1,37.9,85,30.30,6.0,ESE,6.9,-,N/A,,Clear,120,2012-11-19 14:55:00
10:55 AM,44.1,37.9,79,30.29,7.0,SE,10.4,-,N/A,,Clear,130,2012-11-19 15:55:00
11:55 AM,46.0,39.0,76,30.27,7.0,ESE,8.1,-,N/A,,Clear,120,2012-11-19 16:55:00
12:55 PM,48.0,36.0,63,30.24,10.0,SE,9.2,-,N/A,,Scattered Clouds,130,2012-11-19 17:55:00
1:55 PM,48.0,33.1,56,30.23,10.0,SE,11.5,-,N/A,,Clear,130,2012-11-19 18:55:00
2:55 PM,48.0,34.0,58,30.22,10.0,SE,8.1,-,N/A,,Mostly Cloudy,140,2012-11-19 19:55:00
3:55 PM,46.9,37.0,68,30.21,10.0,SE,8.1,-,N/A,,Mostly Cloudy,130,2012-11-19 20:55:00
4:55 PM,45.0,37.9,76,30.20,9.0,SE,8.1,-,N/A,,Overcast,130,2012-11-19 21:55:00
5:55 PM,45.0,37.9,76,30.20,9.0,ESE,4.6,-,N/A,,Clear,120,2012-11-19 22:55:00
6:55 PM,44.1,37.9,79,30.19,7.0,East,5.8,-,N/A,,Clear,100,2012-11-19 23:55:00
7:55 PM,43.0,37.9,82,30.18,7.0,ESE,4.6,-,N/A,,Scattered Clouds,110,2012-11-20 00:55:00
8:55 PM,43.0,37.9,82,30.17,6.0,ESE,4.6,-,N/A,,Haze,110,2012-11-20 01:55:00
9:55 PM,43.0,39.0,86,30.16,6.0,East,4.6,-,N/A,,Overcast,90,2012-11-20 02:55:00
10:55 PM,43.0,39.0,86,30.15,5.0,East,3.5,-,0.00,Rain,Light Rain,80,2012-11-20 03:55:00
11:55 PM,43.0,39.0,86,30.13,5.0,East,4.6,-,0.00,,Overcast,80,2012-11-20 04:55:00